Tracking 20369 objects as of 18-Feb-2020
HD Live streaming from Space Station
objects crossing your sky now

OPS 0203 (DMSP 5A F2)

Track OPS 0203 (DMSP 5A F2) now!
10-day predictions
OPS 0203 (DMSP 5A F2) is classified as:


NORAD ID: 4512
Int'l Code: 1970-070A
Perigee: 736.6 km
Apogee: 829.9 km
Inclination: 99.0 °
Period: 100.4 minutes
Semi major axis: 7154 km
RCS: 0.9702 m2 (medium)
Launch date: September 3, 1970
Source: United States (US)
Launch site: AIR FORCE WESTERN TEST RANGE (AFWTR)
aabbcc
Your satellite tracking list
Your tracking list is empty




NASA's NSSDC Master Catalog

Two Line Element Set (TLE):
1  4512U 70070A   20048.56249008  .00000001  00000-0  16811-4 0  9996
2  4512  98.9828 259.9409 0065159  41.7403 318.8725 14.34682249580450
Source of the keplerian elements: AFSPC